User: anonymous   Login
Location: Columbia
(38.9520°N, 92.3340°W)
Time: 14:21:59
(UTC-05:00)
Language:

Cosmos 2219 Rocket - Orbit

View from above orbital plane
View from above orbital plane
View from above satellite
View from above satellite

Ground track
Ground track

The orbit data is extracted from the following two-line orbital elements,

1 22220U 92076B   15238.50581889 -.00000144  00000-0 -48522-4 0  9991
2 22220 071.0015 009.8978 0013799 208.4564 196.8155 14.16373165177224
Epoch (UTC): 26 August 2015 12:08:22
Eccentricity: 0.0013799
inclination: 71.0015°
perigee height: 827 km
apogee height: 847 km
right ascension of ascending node: 9.8978°
argument of perigee: 208.4564°
revolutions per day: 14.16373165
mean anomaly at epoch: 196.8155°
orbit number at epoch: 17722

The dashed part of the orbit path shows where the satellite is in the earth's shadow,  

DLR